Location: Aero Estates Airport (historical)
(33.2985°N, 96.8642°W)
Time: 08:22:23
(UTC+00:00)

Hubble Space Telescope - Pass Details

Date: 20 October 2024
Orbit: 501 x 505 km, 28.5° (Epoch: 05 November)

Event Time Altitude Azimuth Distance (km) Brightness Sun altitude
Rises 01:00:23 0° 253° (WSW) 2,586 5.8 -15.7°
Reaches altitude 10° 01:02:42 10° 245° (WSW) 1,704 4.4 -16.2°
Maximum altitude 01:06:23 39° 176° (S) 762 1.5 -17.0°
Enters shadow 01:07:40 30° 133° (SE) 929 1.6 -17.2°
